User: anonymous   Login
Location: Unspecified
(0.0000°N, 0.0000°E)
Time: 08:20:54
(UTC+01:00)
Language:

Ariane H10 - Orbit

View from above orbital plane
View from above orbital plane
View from above satellite
View from above satellite

Ground track
Ground track

The orbit data is extracted from the following two-line orbital elements,

1 19622U 88098B   15060.15001687  .00004201  00000-0  12746-2 0  9992
2 19622 004.0063 010.2389 6455660 204.9659 345.9243 03.36549588275606
Epoch (UTC): 01 March 2015 03:36:01
Eccentricity: 0.6455660
inclination: 4.0063°
perigee height: 288 km
apogee height: 24573 km
right ascension of ascending node: 10.2389°
argument of perigee: 204.9659°
revolutions per day: 3.36549588
mean anomaly at epoch: 345.9243°
orbit number at epoch: 27560

The dashed part of the orbit path shows where the satellite is in the earth's shadow,  

DLR